Wind_Speed
27 26 24 24 24 24 24 25 26 27 27 28 28 26 25 26 28 29 31 33 33 34 33 33 33 34 34 35 35 34 35 36 36 36 33 31 30 30 32 34 36 37 36 36 38 39 40 40 39 39 40 42 43 45 46 47 48 48 49 51 53 55 54 54 53 54 56 57 58 59 60 61 61 62 63 64 66 67 68 69 70 71 72 72 73 74 75 77
26 24 23 22 22 21 21 22 24 24 24 25 27 28 28 27 27 28 30 32 34 34 35 35 35 35 34 34 34 35 35 36 37 37 37 36 36 36 34 35 37 39 40 41 42 43 44 44 44 44 45 45 46 47 48 49 50 50 52 54 57 57 56 56 56 57 58 59 61 62 63 64 65 66 67 68 69 70 71 72 73 74 75 76 77 78 79 81
23 23 22 21 20 19 19 20 21 24 23 22 23 25 28 29 29 29 29 30 32 34 36 36 37 37 37 36 36 36 36 36 37 38 38 38 39 41 41 40 40 42 44 46 46 46 47 47 48 48 49 49 50 50 51 52 53 54 55 58 60 59 59 60 60 60 61 62 64 65 66 67 68 69 70 71 72 73 74 75 76 77 78 80 81 82 83 84
24 25 24 22 21 20 22 23 22 24 26 25 24 24 25 27 28 29 30 30 31 32 34 35 36 37 39 39 38 38 38 38 38 39 40 40 41 43 45 46 45 46 47 49 50 51 51 51 52 52 52 52 53 54 54 56 56 57 59 61 62 62 63 63 63 64 65 66 67 68 69 70 71 72 73 74 75 76 77 78 79 80 81 83 84 85 86 86
27 28 27 24 23 22 22 26 27 26 27 29 29 28 27 28 29 29 30 31 32 33 34 35 35 36 37 38 39 39 39 40 41 42 42 42 42 44 46 48 49 50 50 51 52 53 54 55 56 56 56 57 57 58 58 59 60 61 62 63 64 65 66 66 67 68 68 69 71 72 73 73 74 75 76 77 78 79 80 81 82 84 85 86 87 88 88 89
28 30 31 28 26 25 24 26 28 29 29 30 32 32 31 32 33 33 33 34 36 37 38 38 38 39 40 41 41 41 41 41 42 44 45 45 46 47 47 48 49 50 50 52 53 55 56 58 59 60 61 61 61 61 62 62 63 64 65 66 67 68 69 70 70 71 72 73 74 75 76 77 78 79 80 81 82 83 84 86 87 88 89 90 91 91 92 92
30 31 33 33 31 29 29 29 29 30 32 32 33 35 35 34 35 37 38 39 40 41 42 42 43 43 44 44 44 45 46 46 46 46 46 47 48 49 50 49 49 50 51 52 54 55 57 59 61 62 63 64 64 64 65 65 66 67 68 69 69 70 72 73 73 74 75 76 77 78 79 80 81 82 84 85 86 87 88 90 91 92 92 93 94 95 95 96
31 31 33 35 35 34 33 33 32 32 34 36 36 37 38 38 37 37 39 41 42 43 44 44 44 44 43 42 42 43 45 47 49 50 49 49 49 50 51 52 53 54 55 56 58 58 60 61 63 64 65 66 66 67 67 68 69 70 71 72 73 74 75 75 76 76 77 78 79 80 81 82 83 85 86 87 88 90 91 92 93 94 95 97 97 98 99 99
32 32 33 35 36 36 37 36 36 35 35 36 38 38 38 39 40 40 40 40 42 43 43 43 43 43 43 42 42 42 43 44 46 48 50 51 51 52 53 55 56 56 58 59 61 62 64 65 66 67 68 69 69 71 71 72 72 73 74 75 76 76 76 77 77 77 78 79 79 80 81 82 83 85 86 88 90 91 93 94 95 96 97 99 100 101 102 102
32 32 33 35 37 38 39 39 39 39 38 38 38 39 40 40 41 42 42 43 43 44 44 45 45 45 45 45 45 44 44 45 46 47 48 50 51 52 54 55 56 57 58 60 61 63 64 66 67 69 70 71 72 73 74 74 74 74 75 75 76 76 77 78 79 80 80 81 81 82 83 84 85 87 88 90 91 93 94 96 97 98 99 100 101 103 104 105
33 33 33 34 36 38 39 41 41 41 41 41 41 41 42 42 43 44 45 46 47 47 48 49 50 50 50 50 50 49 49 49 49 49 50 50 51 52 53 55 56 57 58 59 60 61 62 64 65 67 69 71 71 71 72 73 74 75 75 76 77 78 79 80 82 83 84 85 85 86 87 88 89 91 92 93 94 95 97 98 99 100 101 102 103 105 106 106
33 34 34 34 34 35 37 39 41 42 43 43 44 44 44 45 45 45 47 48 49 50 51 52 53 54 54 55 55 55 54 54 53 53 53 52 53 53 54 56 57 58 59 60 61 62 63 64 65 66 68 70 71 72 72 74 75 76 77 78 79 81 82 83 85 86 87 88 89 91 91 91 93 94 95 96 97 98 99 100 101 102 102 103 104 105 107 108
34 34 34 34 34 34 34 35 37 40 42 44 45 45 46 46 46 47 48 49 50 51 52 53 54 55 56 56 57 57 58 58 57 57 57 56 56 56 56 57 58 59 60 61 62 63 64 66 67 68 70 71 72 74 74 76 77 78 79 81 82 83 84 85 86 88 89 89 91 92 91 91 93 95 95 96 97 98 98 99 100 101 101 102 103 103 104 105
35 35 35 35 35 34 33 33 34 36 39 41 43 44 45 45 45 46 47 48 48 49 50 51 52 52 53 54 54 55 56 56 57 57 58 58 58 59 60 60 61 62 63 64 65 66 67 68 69 70 71 72 73 74 74 75 76 78 79 80 82 83 83 84 85 86 86 87 88 89 89 90 91 93 94 95 96 96 97 97 98 99 99 99 100 100 101 102
36 36 36 36 35 33 31 31 32 34 35 37 38 40 41 42 43 43 43 44 45 46 47 48 48 49 49 50 50 51 51 51 52 53 54 54 55 56 57 59 60 61 62 63 64 65 66 67 67 68 68 69 70 70 71 72 73 74 76 77 78 80 81 81 82 83 84 85 87 88 88 88 90 92 93 94 95 96 96 97 98 98 99 99 99 100 100 101
37 36 35 33 32 31 30 31 31 33 34 34 35 37 38 39 40 40 41 42 43 44 44 44 44 44 44 44 44 45 45 45 45 47 48 48 49 50 51 53 54 55 56 58 59 60 61 61 62 63 64 65 66 67 68 69 70 72 74 75 77 78 80 81 82 83 84 85 86 87 88 88 90 92 93 94 95 96 97 97 98 98 99 99 99 99 99 99
36 34 32 31 31 30 30 30 31 32 33 33 34 35 37 38 39 39 40 41 41 41 40 40 40 39 39 39 39 40 40 41 41 42 43 44 45 46 47 48 49 51 52 53 54 55 56 57 58 59 61 62 64 66 67 69 70 72 74 76 78 79 81 82 83 84 86 86 87 88 89 89 90 91 92 92 93 93 93 93 94 94 94 94 94 94 94 95
33 31 31 31 31 30 29 30 31 31 32 32 34 35 36 37 38 39 39 39 38 37 36 36 36 36 36 36 36 36 37 38 38 39 40 41 42 43 44 45 47 48 49 51 52 53 55 56 58 60 62 64 66 68 70 71 73 75 77 78 80 82 83 84 85 86 86 87 87 87 87 86 86 86 86 86 86 86 86 87 87 87 87 88 88 88 89 89
31 30 30 30 29 28 29 29 30 30 31 31 33 34 35 36 37 37 37 35 34 33 33 33 33 33 33 34 33 34 34 35 36 37 38 40 41 42 44 45 47 48 50 51 53 55 57 59 61 63 65 67 69 71 73 75 76 78 79 80 81 82 83 83 83 83 82 81 81 80 80 80 79 79 79 79 80 81 81 82 82 83 83 83 84 85 85 86
28 28 28 28 28 28 28 28 28 29 29 30 32 33 34 35 35 35 33 32 32 31 31 31 31 31 31 32 32 33 33 35 36 38 40 41 42 44 46 47 49 51 53 55 57 59 61 63 65 67 68 70 72 73 75 76 77 77 78 78 78 78 77 77 76 75 75 74 73 74 74 74 74 74 75 76 77 77 78 79 80 80 81 82 83 83 84 85
27 27 28 27 27 28 28 27 27 27 28 30 31 33 34 34 32 31 31 30 30 30 30 30 30 30 31 32 33 34 36 37 38 40 42 43 45 47 48 50 52 54 56 58 60 62 63 65 66 68 69 70 71 71 72 72 72 72 72 71 71 70 70 70 70 69 69 69 69 70 70 71 72 73 74 74 75 76 77 78 79 79 80 81 82 83 83 84
27 28 27 27 27 27 27 26 26 27 28 29 31 32 31 30 29 29 29 29 29 29 30 30 31 31 33 34 36 38 39 40 41 43 45 46 48 50 52 53 55 57 58 60 61 62 63 65 65 66 66 66 66 66 66 66 66 66 65 65 65 64 64 65 65 65 66 66 66 67 68 70 71 73 73 74 75 76 76 77 78 79 80 81 82 83 84 84
27 27 27 26 26 26 25 25 26 26 28 29 30 30 29 28 28 28 28 28 29 30 30 31 32 34 36 37 39 40 41 43 45 47 49 50 52 53 54 56 57 58 59 60 61 62 62 62 62 61 61 61 61 60 60 60 60 61 60 60 60 61 61 62 63 64 65 66 66 66 67 69 72 73 74 75 76 77 78 79 80 81 82 83 83 84 85 86
27 27 27 26 25 24 24 25 25 27 28 28 28 27 27 27 27 28 28 28 29 30 32 33 35 37 39 40 41 42 44 46 48 50 52 53 54 55 56 57 58 59 59 59 59 59 58 57 57 56 56 56 56 56 56 56 56 57 58 58 59 60 61 61 62 64 65 66 66 66 67 69 72 74 75 76 78 79 80 81 82 83 84 84 85 86 87 88
27 27 26 24 23 23 24 24 26 27 27 27 26 26 26 27 27 27 28 29 30 32 34 36 38 39 42 43 44 45 48 50 51 52 53 54 55 55 56 57 57 57 56 55 54 54 53 53 52 52 52 53 53 53 54 55 55 56 57 58 59 60 61 62 63 64 65 66 67 68 69 71 74 76 77 78 80 81 82 82 83 84 84 85 86 87 88 89
26 25 24 23 23 23 24 25 26 26 25 25 25 26 26 26 26 27 29 30 32 35 37 38 40 42 44 45 47 49 51 53 54 54 55 55 55 56 55 54 53 52 51 50 50 50 49 49 49 49 50 51 52 53 54 55 56 57 58 59 60 61 62 63 64 65 66 68 69 71 73 74 77 78 78 79 80 81 82 82 83 84 85 86 87 88 89 90
24 23 22 22 23 23 24 24 24 24 23 24 25 25 25 26 27 29 30 32 34 37 39 41 43 44 45 47 50 52 54 55 55 55 55 55 55 53 51 50 49 49 48 48 47 47 47 47 48 48 49 50 52 53 54 55 56 58 58 59 61 62 63 64 66 67 69 70 71 73 75 76 77 78 79 80 80 81 82 83 83 84 85 85 86 86 87 87
22 21 21 22 22 23 23 23 22 22 23 23 24 25 26 27 28 30 32 35 37 39 42 44 45 46 48 50 53 54 55 55 54 55 54 52 51 49 48 48 47 47 47 46 46 46 46 46 47 48 49 51 52 53 54 55 57 58 59 60 62 63 65 67 68 70 71 72 73 74 75 77 78 78 79 79 80 80 80 81 81 81 81 82 82 82 82 82
20 20 21 21 22 22 22 21 22 22 23 23 24 25 27 28 30 32 34 37 40 42 43 45 47 49 52 54 55 55 54 54 54 53 51 49 48 47 46 46 45 45 45 45 45 46 46 46 47 48 49 50 52 53 55 56 58 59 60 62 64 65 67 69 70 71 72 73 74 74 75 75 76 76 76 76 76 76 76 76 76 76 76 75 75 75 75 75
20 20 21 21 21 21 21 21 22 22 23 24 25 27 28 30 32 34 37 39 42 44 45 47 49 52 54 55 55 54 54 54 52 50 48 47 46 45 45 44 44 44 45 45 45 45 46 46 47 48 49 51 52 54 55 57 59 61 62 64 65 67 68 70 70 71 71 71 71 72 72 71 71 71 71 70 70 70 70 70 70 70 70 70 70 70 71 72
19 20 21 21 21 21 21 21 22 23 24 26 27 29 30 32 34 37 39 42 44 45 47 50 52 54 54 54 54 54 53 50 48 46 45 44 43 42 42 42 42 42 43 45 45 46 47 48 49 50 51 52 54 55 57 59 61 63 64 65 66 67 68 68 68 68 67 66 66 67 67 66 66 65 65 65 65 65 65 65 65 65 66 66 67 68 69 71
20 20 21 21 21 21 21 22 23 24 26 28 29 31 33 35 37 39 41 43 45 47 50 52 54 54 54 53 53 52 49 47 45 44 43 42 41 40 40 40 40 41 43 45 46 47 48 49 51 52 53 54 56 57 59 60 62 63 63 64 64 64 65 65 65 65 63 62 61 62 62 62 62 61 61 60 60 60 61 61 62 63 63 64 66 67 69 70
20 20 20 20 20 21 22 23 24 25 28 30 31 33 35 37 39 41 44 45 47 50 52 54 54 53 53 53 51 48 46 44 43 43 42 42 41 40 40 40 41 42 43 45 47 48 49 51 52 53 54 56 56 57 58 59 60 60 60 60 60 60 60 60 61 61 61 59 58 58 59 59 59 58 58 57 57 58 58 59 60 62 63 64 65 67 68 69
20 19 20 20 20 21 23 24 25 27 29 31 33 35 37 39 41 43 45 48 50 52 54 54 53 53 52 50 47 45 44 43 42 41 41 40 39 40 40 41 43 44 45 46 48 49 50 51 52 53 54 55 56 56 56 57 57 57 56 56 56 56 56 56 56 56 57 57 55 56 56 56 56 56 56 56 57 58 59 60 61 62 63 64 65 66 66 67
20 19 20 21 21 22 24 25 27 28 31 33 35 37 39 41 43 45 47 50 53 54 54 53 53 52 49 46 44 43 42 41 41 40 38 38 38 39 40 41 42 44 46 47 49 50 51 52 53 53 54 54 54 54 53 53 53 52 52 52 52 52 52 52 53 53 54 54 53 53 54 55 54 54 55 55 56 57 58 59 59 60 62 63 63 64 65 65
20 20 21 22 22 23 25 26 28 30 32 34 36 39 41 42 44 47 50 52 53 53 52 52 51 48 46 44 43 42 41 40 38 37 36 37 38 39 40 41 43 45 47 49 50 50 50 50 50 50 50 50 49 49 49 48 48 48 48 48 48 48 48 49 49 50 50 51 50 48 49 51 52 52 52 53 53 54 55 56 57 58 59 61 62 63 64 64
21 21 22 23 23 25 26 28 29 31 34 36 38 40 42 44 47 50 51 52 52 52 51 50 47 44 43 42 41 40 39 37 36 35 36 36 37 38 41 43 45 47 48 48 48 47 46 46 45 45 45 45 45 44 44 44 44 44 44 44 44 44 44 45 45 45 46 47 48 47 46 47 50 51 52 52 51 52 53 53 54 54 55 56 58 59 61 62
21 21 22 23 25 26 27 29 31 33 35 37 39 41 43 46 49 51 52 52 51 51 49 47 44 42 41 40 39 38 36 35 34 34 34 34 36 39 42 44 46 46 45 45 44 44 43 43 42 42 42 42 42 41 41 41 41 41 41 41 42 42 42 42 43 43 43 44 46 48 47 46 47 49 50 51 50 50 50 51 51 51 51 52 53 54 56 57
21 22 23 24 26 27 28 30 33 35 37 38 40 43 46 48 50 51 51 50 50 49 47 44 42 41 40 39 38 36 34 33 33 33 33 34 37 40 42 43 44 44 44 44 44 43 43 43 42 42 42 41 41 41 41 41 41 41 41 42 43 43 43 43 44 44 43 43 43 44 43 42 44 45 46 48 49 49 49 50 50 51 51 51 51 52 53 54
21 22 24 25 26 27 30 32 35 36 38 40 43 46 48 49 50 50 49 49 49 47 44 42 41 40 39 38 37 34 33 32 32 32 33 35 37 39 42 43 44 44 44 44 44 44 44 44 44 44 44 44 44 44 43 43 43 42 42 42 42 42 43 43 43 43 42 41 41 43 43 40 41 44 45 49 51 51 51 51 52 53 54 54 53 53 53 54
22 23 25 26 27 29 32 34 35 37 40 42 45 47 48 49 49 49 49 49 47 44 42 41 40 39 38 37 35 33 32 32 32 32 33 35 37 40 42 44 45 45 46 47 47 48 48 48 48 47 47 46 45 44 43 43 42 41 41 40 40 39 40 42 44 45 45 43 44 48 50 46 45 48 49 52 55 55 55 55 56 58 60 59 58 57 56 56
23 24 25 27 28 31 33 34 37 39 42 44 46 47 48 49 48 48 48 47 44 42 41 41 39 38 37 35 33 32 32 31 31 32 33 35 38 40 43 45 46 47 48 49 49 50 49 48 48 47 46 45 43 42 41 41 41 41 41 42 41 40 40 41 45 48 51 49 48 52 57 55 53 54 55 56 60 62 60 60 61 63 65 65 65 64 62 60
23 24 26 28 30 32 34 36 39 42 44 45 47 48 48 47 47 48 47 43 41 40 40 39 38 37 36 34 32 31 31 31 31 32 33 36 38 41 43 45 47 48 48 49 49 48 47 46 45 44 44 43 43 43 42 41 41 42 44 45 45 44 43 42 45 50 55 56 54 56 61 62 60 61 62 62 65 67 66 65 65 67 69 70 70 69 68 66
23 25 27 29 31 33 35 38 41 43 45 46 47 48 47 47 47 47 44 40 40 40 39 38 38 37 35 33 32 31 31 30 31 32 33 36 38 41 43 45 46 46 47 46 46 46 45 45 44 44 43 43 43 44 44 44 44 44 46 48 49 49 48 46 48 52 56 60 60 60 63 66 67 67 68 68 69 71 72 71 70 71 73 73 73 74 73 71
24 25 27 29 32 35 38 40 42 44 46 47 47 47 46 46 47 44 40 39 39 38 38 37 37 36 34 32 32 31 31 31 31 32 33 36 38 40 42 43 44 45 45 45 45 45 45 44 44 44 45 44 44 44 45 46 47 48 48 50 53 54 54 52 50 53 58 61 64 65 65 67 71 72 72 72 73 73 75 76 75 75 76 76 76 77 77 75
24 26 28 31 34 37 39 41 43 45 46 47 47 46 46 47 45 41 38 38 38 37 37 37 37 35 34 32 32 32 31 31 32 33 34 35 37 39 41 42 43 44 44 45 45 45 45 45 45 44 45 47 47 47 47 48 50 52 53 54 56 58 60 59 56 56 59 62 64 68 68 68 70 73 73 75 76 75 76 78 79 79 79 79 79 80 80 79
25 28 31 34 36 38 40 42 44 46 46 46 45 45 46 46 42 38 37 37 37 36 36 37 36 35 34 33 33 32 32 32 33 34 34 35 37 39 41 42 42 43 44 44 45 46 46 46 46 46 45 47 50 51 51 52 52 54 56 58 59 60 62 65 64 62 63 65 65 68 71 70 71 73 73 75 77 76 77 79 80 81 81 81 81 82 83 83
28 30 32 35 37 39 41 43 45 46 46 45 45 45 46 43 39 37 37 36 36 36 36 36 36 35 34 33 33 33 33 33 33 34 35 36 38 40 41 42 43 43 44 44 45 46 47 47 49 49 48 47 49 52 53 54 55 56 58 59 61 62 63 66 68 66 66 68 69 69 71 73 74 74 74 76 78 77 77 79 81 82 82 82 83 84 85 85
29 32 34 36 38 40 42 44 45 45 45 44 45 46 44 40 37 36 36 35 35 35 36 36 36 36 35 34 33 33 33 34 34 35 36 37 38 40 41 43 44 44 45 45 45 45 46 47 49 51 52 51 51 52 54 55 56 57 59 61 62 64 65 67 69 70 69 70 72 72 72 74 76 77 76 77 79 80 79 80 83 84 83 83 85 86 86 87
31 33 35 37 39 41 43 44 44 44 44 44 45 45 41 37 36 36 36 34 34 35 35 36 37 36 35 34 34 34 34 34 35 36 37 38 39 40 42 43 44 46 46 46 46 46 46 47 48 50 53 54 54 55 56 57 57 57 59 62 64 65 68 70 72 73 73 72 74 75 75 75 77 79 78 79 80 81 81 82 84 86 85 85 86 87 88 89
32 34 36 38 40 41 43 43 43 43 43 45 46 43 39 36 37 37 36 34 34 34 36 37 37 37 36 36 36 35 35 35 36 37 38 39 39 41 42 43 44 46 47 48 48 48 47 48 48 49 52 54 55 56 58 59 60 59 59 62 64 66 69 71 73 75 75 75 76 77 78 78 79 79 79 80 81 82 81 83 86 87 86 87 88 88 90 91
33 34 36 38 40 42 42 42 42 43 44 46 45 41 37 37 38 37 36 35 34 34 35 37 37 37 37 37 37 37 36 37 37 38 40 41 41 42 43 44 45 46 47 48 49 50 49 49 49 49 50 53 55 56 58 60 61 61 61 62 64 66 68 71 74 76 77 77 78 79 80 81 82 82 81 81 82 83 83 84 88 88 87 87 89 90 91 92
Wind_Direction
223 224 224 227 228 227 228 230 231 234 238 239 238 239 239 238 237 235 233 232 231 231 234 238 241 242 242 243 243 242 243 244 245 246 247 247 249 253 260 265 267 266 266 266 266 266 265 264 262 263 263 263 262 261 260 259 259 259 260 261 262 262 262 262 262 262 262 263 263 262 262 262 263 263 263 263 262 262 262 262 262 261 261 261 261 261 261 261
222 223 225 226 229 229 230 231 234 237 240 243 241 239 240 241 242 241 239 238 237 237 237 239 241 242 244 247 250 251 250 250 251 250 249 247 245 245 250 257 262 264 265 266 266 266 266 266 265 264 263 263 263 263 263 262 261 261 261 261 261 262 262 262 262 262 262 262 263 263 263 263 263 263 263 263 263 263 263 262 262 262 262 261 261 261 260 261
218 222 225 226 228 228 221 222 238 246 244 245 246 244 242 241 242 245 245 244 244 243 243 244 244 245 246 247 250 252 253 253 253 253 252 251 250 250 253 255 255 257 258 259 260 261 262 264 265 265 265 265 265 265 266 266 266 266 265 265 265 265 264 264 263 262 262 262 262 263 263 263 263 263 263 263 263 263 263 263 263 263 263 262 261 261 261 261
210 214 222 228 231 227 214 208 225 247 254 253 252 251 250 249 248 249 251 252 251 250 250 250 250 250 250 251 252 252 253 253 253 253 252 253 255 257 260 261 261 261 261 261 261 261 262 263 264 265 265 266 266 267 267 268 268 268 268 268 268 268 268 268 267 266 265 265 264 264 264 264 264 264 264 264 264 264 264 264 264 264 264 263 263 263 262 262
207 209 215 225 233 233 222 213 216 231 248 256 257 253 248 249 254 257 259 260 260 260 260 260 261 260 259 259 258 257 256 255 255 255 255 254 254 257 260 262 264 265 266 267 267 266 264 265 266 267 267 267 268 268 268 268 269 269 269 269 270 270 270 270 270 269 268 268 267 267 266 266 266 266 265 265 266 266 266 266 265 265 265 265 264 264 264 264
210 209 212 217 226 233 231 226 223 224 234 247 254 256 252 245 246 252 256 260 262 264 266 267 268 269 269 268 267 265 264 262 260 259 259 258 257 257 259 262 264 265 267 268 268 268 267 267 267 268 268 268 269 269 270 270 270 270 271 271 271 271 271 271 271 271 270 270 269 269 268 268 268 268 267 267 267 267 267 267 266 266 266 266 266 266 266 266
215 213 214 216 220 226 231 234 234 231 231 237 244 251 255 252 247 248 251 255 258 260 263 266 270 272 273 272 270 268 267 267 266 265 265 264 263 262 262 262 263 264 265 266 267 268 269 269 268 268 269 269 270 270 271 271 271 271 272 272 272 272 272 272 272 272 272 272 271 271 270 270 270 269 269 269 268 268 267 267 267 267 267 267 267 267 267 266
218 217 217 219 222 225 228 233 237 239 237 238 241 246 252 256 256 255 254 256 258 260 263 266 269 272 273 274 273 271 269 267 267 267 267 267 267 266 266 265 265 265 265 265 266 267 268 269 270 270 270 270 271 272 272 272 272 273 273 273 273 274 274 274 274 274 274 273 273 272 272 272 271 271 271 271 270 269 269 269 268 268 268 268 268 268 267 267
221 221 221 223 226 228 230 231 235 239 243 245 247 249 252 255 259 260 260 261 262 264 266 268 270 272 274 275 276 275 274 272 269 268 268 267 267 266 266 267 268 268 268 268 268 269 270 270 271 271 272 272 273 274 274 274 274 275 275 275 274 274 274 274 274 274 274 274 273 273 273 272 272 272 272 271 271 270 270 270 270 269 269 269 269 269 268 268
224 225 226 226 229 231 233 234 235 238 242 246 249 252 253 255 257 259 261 262 263 265 267 269 271 273 275 275 275 276 276 275 274 273 271 271 270 269 269 269 269 270 270 271 271 271 271 272 272 272 273 273 274 275 275 275 275 275 276 275 275 274 274 274 274 274 274 274 274 274 274 273 273 273 272 272 271 271 270 270 270 269 269 269 269 269 269 269
225 228 230 231 231 233 234 236 237 239 241 244 248 251 254 256 258 259 261 262 264 265 267 270 272 273 275 275 276 276 275 275 275 274 274 274 273 273 272 273 273 273 272 273 273 272 273 274 274 274 274 274 275 276 276 276 276 276 276 276 276 275 275 275 276 276 276 276 276 276 276 276 276 275 274 273 272 272 271 270 270 270 269 269 270 270 270 270
227 231 234 236 237 237 238 239 240 241 243 246 248 251 254 257 259 261 262 264 266 268 270 272 273 275 276 276 277 276 276 276 276 275 274 274 273 273 273 274 274 275 275 275 275 275 275 275 276 276 276 276 277 278 278 278 278 278 278 278 278 278 278 278 278 278 278 279 278 278 278 278 277 277 276 275 275 274 273 273 272 271 271 271 271 271 270 270
230 233 236 240 242 242 243 244 245 246 248 249 251 254 256 258 261 264 266 267 269 271 273 274 275 276 277 277 277 277 277 277 276 276 275 274 274 273 273 273 274 274 275 275 275 276 276 276 277 278 278 278 279 279 279 279 279 279 278 278 278 278 278 278 278 278 278 278 278 278 278 278 277 277 277 277 276 276 275 275 275 274 274 273 273 272 272 272
234 237 239 242 246 248 248 249 251 251 252 253 254 256 258 260 263 266 268 270 272 274 275 276 277 278 278 278 278 277 277 277 277 277 276 276 275 275 275 274 275 275 276 276 277 277 278 278 278 279 279 279 279 279 279 278 278 278 278 278 278 277 277 277 277 277 277 277 277 277 278 278 277 277 277 277 277 277 277 277 277 277 276 276 275 275 274 274
238 240 243 246 250 252 254 254 255 256 257 258 258 259 261 263 266 269 272 274 275 276 277 278 279 279 279 279 279 279 279 279 279 279 279 278 278 277 277 277 277 277 278 278 278 278 279 279 279 279 279 279 279 279 279 279 279 278 278 278 278 278 278 278 278 278 277 277 278 278 278 278 278 279 279 279 279 279 279 279 279 278 278 278 277 277 277 276
240 243 247 251 255 258 259 259 259 261 263 263 264 264 266 268 271 274 276 278 279 280 280 280 281 281 281 282 282 283 283 283 283 283 283 282 281 281 280 280 279 279 279 280 280 280 280 280 280 280 280 280 280 280 280 280 279 279 279 279 279 279 279 279 279 279 279 279 279 279 279 279 279 279 279 279 279 279 279 279 279 278 278 278 278 277 277 276
242 247 252 257 261 263 263 263 263 266 267 267 267 268 270 272 276 278 280 281 282 282 282 283 284 285 286 286 286 286 286 286 286 285 285 285 285 284 283 283 283 282 282 282 282 283 283 283 283 282 282 282 281 281 280 280 279 279 279 279 279 279 279 279 279 280 280 280 280 280 280 280 279 279 279 279 279 278 278 278 277 277 277 277 277 276 276 276
248 253 258 262 264 265 265 266 266 268 268 268 269 270 272 275 278 281 283 284 284 285 286 287 288 289 289 289 289 289 289 289 289 288 288 288 288 288 287 287 287 286 286 286 285 285 284 283 283 282 281 280 280 280 279 279 279 279 279 279 279 280 280 280 281 281 281 282 282 281 281 281 281 280 280 279 279 278 278 278 278 277 277 277 277 277 276 276
253 257 261 263 264 266 267 267 267 268 269 270 272 274 275 278 280 282 284 285 287 288 290 291 292 292 292 292 292 293 293 293 293 292 292 291 291 290 289 288 287 287 285 284 283 282 281 281 280 280 279 279 279 279 279 279 279 280 280 280 281 281 281 282 282 282 282 283 282 282 282 282 281 281 281 280 280 280 279 279 279 279 279 279 278 278 278 277
255 258 262 264 265 266 268 268 267 268 270 272 274 276 278 280 282 284 285 287 290 291 293 293 294 294 294 295 295 295 295 295 295 294 293 292 291 289 288 286 285 284 282 282 281 280 280 280 279 279 279 279 280 280 280 281 281 281 282 282 283 283 283 284 284 284 283 283 283 283 283 283 283 282 282 282 281 281 281 281 281 281 280 280 280 279 279 278
258 261 264 266 266 267 268 268 268 269 271 273 275 279 281 283 285 287 289 292 293 294 295 295 296 296 296 297 297 297 296 296 295 294 292 291 290 288 286 285 284 283 282 282 281 281 281 281 281 281 281 282 282 282 283 283 284 284 284 284 285 285 285 285 285 285 285 285 285 285 285 285 285 284 284 283 283 283 283 282 282 282 281 281 281 280 280 280
262 264 265 266 266 267 268 268 269 271 273 276 280 283 285 286 288 290 292 294 295 295 296 296 297 298 298 298 299 298 298 297 296 294 293 292 290 289 288 287 286 286 285 285 284 284 285 285 285 285 285 286 286 286 286 286 286 286 286 286 286 286 286 287 287 287 287 287 287 288 288 287 287 286 286 285 285 285 285 284 284 284 283 283 283 282 282 282
264 265 266 266 266 267 268 269 271 273 277 281 284 285 286 288 290 292 294 295 296 297 297 298 299 299 299 299 300 299 299 299 298 297 296 295 294 292 292 291 290 290 290 289 289 289 289 289 289 290 289 289 289 289 289 288 288 289 289 289 289 289 289 289 289 289 289 289 289 289 289 288 288 288 287 287 287 287 287 286 286 286 285 285 285 284 284 284
264 265 266 266 266 267 269 271 274 277 281 284 285 286 287 289 292 293 294 296 297 298 299 299 300 301 301 300 301 301 300 300 299 299 298 297 296 296 295 295 294 294 293 293 293 293 293 293 293 292 292 292 292 292 291 291 291 291 292 292 292 292 291 291 291 291 291 290 290 289 289 289 288 288 288 288 288 288 287 287 286 286 286 285 285 284 284 283
263 264 266 266 267 268 271 274 278 281 283 284 285 286 288 291 293 294 295 297 298 298 299 300 302 302 302 302 302 302 302 302 301 301 300 299 298 298 297 296 296 296 295 295 296 296 296 296 296 296 295 295 295 295 295 295 295 294 294 294 294 293 293 293 292 292 291 291 291 290 290 289 288 288 288 288 287 287 286 286 285 285 284 284 283 283 283 282
262 264 266 267 269 271 274 278 280 282 283 284 285 287 290 292 294 295 296 297 298 299 300 302 303 303 303 304 304 305 305 305 304 303 302 301 300 299 299 299 298 298 298 299 299 299 299 299 299 299 299 299 299 299 298 298 298 297 297 296 296 295 295 294 293 292 292 291 291 290 290 288 288 288 287 287 286 286 285 285 285 284 284 284 283 283 283 283
262 264 267 269 272 275 278 280 281 282 283 284 287 290 292 294 295 296 297 298 299 299 301 303 304 304 305 306 307 307 307 306 305 304 303 303 302 302 302 302 302 303 303 303 303 303 303 303 303 303 302 302 301 301 300 299 299 298 298 297 296 295 294 293 293 292 291 291 290 290 289 288 288 288 288 288 287 287 287 286 286 285 285 285 284 284 284 284
263 265 268 272 275 278 280 280 281 283 285 287 290 293 294 296 296 297 298 299 299 301 303 305 306 306 308 309 308 308 307 305 305 304 304 305 305 305 306 306 307 307 306 306 306 306 306 306 306 305 304 303 302 301 300 300 299 298 297 296 296 295 294 293 293 292 292 291 291 291 291 290 290 290 290 290 289 289 288 288 288 287 287 287 286 286 286 286
263 265 269 273 277 280 280 281 283 285 288 292 294 295 296 296 297 297 298 299 301 303 305 307 308 310 310 309 308 308 307 307 307 307 307 308 308 309 309 310 310 309 309 309 309 308 308 308 307 305 304 304 303 302 301 300 299 297 297 296 295 294 294 293 293 293 293 293 293 292 292 292 292 292 292 292 291 291 291 291 291 290 290 290 290 289 289 289
263 266 270 274 277 279 281 283 286 290 293 295 296 296 296 297 297 298 299 301 303 305 308 309 311 311 310 309 309 309 309 309 309 310 310 311 312 312 312 312 312 312 312 312 311 310 310 309 308 307 306 304 303 301 300 298 297 296 296 295 295 295 294 295 295 295 295 295 295 294 294 294 295 295 295 295 295 295 294 294 293 293 293 292 292 292 291 291
263 267 271 274 277 279 282 286 290 293 295 296 297 297 297 297 298 299 300 303 306 308 311 312 312 311 310 309 309 309 310 310 310 311 311 312 313 313 314 314 315 314 314 313 313 312 312 311 309 307 305 303 302 300 299 298 297 297 297 297 297 297 297 297 297 297 297 298 299 299 299 299 299 298 298 298 297 296 296 295 295 294 294 293 293 293 292 292
263 267 271 274 277 280 284 289 292 293 294 296 297 298 297 298 299 300 303 306 309 311 312 312 311 311 310 310 310 310 311 311 312 313 313 314 314 315 316 316 316 316 316 316 315 314 313 311 309 307 305 303 302 301 300 299 299 300 300 301 301 301 301 301 302 302 303 303 304 303 303 302 301 300 300 299 298 297 297 296 295 295 294 294 294 293 293 293
264 268 272 275 278 282 286 290 291 292 293 295 296 297 297 298 300 304 307 310 312 313 312 312 311 311 311 311 311 311 312 313 315 316 317 318 320 321 321 321 321 320 319 317 316 314 312 310 308 306 305 304 303 302 302 303 303 304 305 305 306 306 306 307 307 307 308 308 307 306 305 305 304 304 303 302 301 300 299 299 298 297 297 296 295 295 294 294
265 270 273 275 278 282 286 290 290 291 292 294 296 297 298 301 304 307 310 312 313 313 312 312 312 312 312 312 312 313 315 317 318 320 321 322 324 325 325 325 324 322 320 318 316 314 312 311 310 309 308 308 308 308 308 309 309 309 310 310 310 310 310 311 311 311 310 311 311 310 310 309 309 308 307 306 305 304 303 303 302 301 300 299 298 297 296 295
266 268 270 273 277 281 285 288 289 290 293 295 297 299 301 305 308 310 312 313 313 313 313 313 313 313 313 313 314 316 318 320 321 322 324 325 327 327 327 325 323 321 321 320 320 319 318 318 317 315 315 314 314 314 313 313 314 314 314 314 314 315 315 314 314 314 314 314 315 315 315 314 313 312 311 310 310 309 308 307 307 306 305 304 303 302 301 300
265 266 268 272 276 279 284 287 289 291 294 296 299 302 305 308 311 312 313 313 313 313 313 313 313 313 314 315 317 319 321 322 323 325 327 329 329 328 326 325 325 326 327 327 326 325 324 323 322 321 320 319 319 319 319 319 319 319 319 319 319 319 319 318 318 319 319 319 319 320 320 319 318 318 317 317 317 317 315 314 313 312 311 309 308 307 305 304
265 265 267 271 275 279 284 288 291 294 297 300 303 306 309 311 312 313 313 313 313 313 313 313 313 314 315 317 319 321 322 323 326 329 330 329 328 328 329 331 333 333 332 331 331 330 329 329 329 328 327 327 326 326 326 326 325 325 326 326 325 325 325 325 325 326 327 328 327 328 330 329 327 328 327 327 327 325 324 322 321 319 317 315 313 311 309 308
265 264 266 270 276 281 287 290 294 298 301 303 306 309 311 312 313 313 313 313 313 314 314 314 314 315 317 319 320 322 323 326 329 329 328 328 331 334 337 338 337 336 335 335 335 336 337 338 338 338 338 337 336 336 335 335 335 335 335 334 334 334 333 333 334 335 336 338 337 337 338 339 337 337 336 334 333 332 330 329 328 326 324 322 320 317 316 314
264 264 267 273 279 285 290 294 298 301 304 306 309 310 312 312 313 313 314 314 315 315 315 314 315 316 319 320 321 323 326 328 329 328 329 333 337 340 341 340 339 339 339 341 342 343 345 346 347 347 346 345 345 345 345 344 343 343 343 343 342 342 341 341 341 342 343 344 343 341 342 344 343 342 341 340 339 338 337 336 336 335 333 331 328 326 324 322
263 265 270 277 283 288 293 297 301 303 305 308 310 311 312 313 314 314 315 315 316 316 315 315 316 318 320 321 323 325 328 328 328 330 333 337 340 342 343 343 342 343 345 346 348 349 350 351 352 352 352 352 352 351 351 350 348 348 348 348 348 347 346 345 345 346 347 348 348 345 344 346 346 345 346 346 345 345 345 344 344 343 341 339 336 334 331 329
264 268 274 281 286 291 296 299 302 304 307 309 311 312 314 315 315 316 316 317 317 316 315 316 317 319 320 322 324 326 327 327 329 332 335 338 341 343 345 345 346 347 348 350 351 353 354 354 355 355 355 356 356 354 353 352 351 351 350 351 351 351 351 351 351 350 350 351 353 351 348 348 350 350 350 351 350 349 350 349 349 349 347 345 342 340 338 335
268 273 279 286 290 294 298 300 302 305 308 311 312 314 315 316 316 317 318 317 317 316 316 317 318 319 321 322 325 326 326 327 329 333 335 339 343 345 346 347 348 350 351 352 354 355 355 356 356 356 356 356 356 355 354 353 352 353 353 354 354 355 355 357 357 355 354 353 355 356 353 351 353 354 353 354 353 352 352 353 353 353 351 349 347 344 342 340
273 280 285 289 292 295 298 301 304 307 310 312 314 315 316 317 317 318 318 318 317 316 316 316 318 319 320 322 324 324 325 326 329 332 335 340 344 346 347 348 349 350 352 352 353 353 353 354 354 354 354 354 354 354 354 354 355 355 356 356 357 357 357 358 0 360 357 355 357 359 356 353 355 356 354 355 356 353 353 354 354 355 353 351 349 347 345 343
279 285 288 290 293 296 299 303 306 309 311 314 316 316 317 317 318 319 319 318 317 316 316 316 317 318 320 321 322 323 324 325 328 332 336 341 344 346 347 347 348 349 350 350 351 351 351 351 352 352 352 353 354 355 355 356 356 357 357 358 358 358 358 358 1 3 1 357 356 360 358 353 354 357 355 355 356 354 352 353 354 355 354 351 350 348 346 345
282 286 288 291 294 298 302 305 308 311 314 316 317 317 318 319 319 320 319 318 316 315 315 315 316 317 318 320 320 322 323 325 327 331 335 340 343 344 345 345 346 346 346 347 348 348 349 349 350 351 351 352 353 355 356 356 356 356 357 358 358 358 357 358 0 4 3 359 355 357 359 355 353 355 354 354 355 353 351 351 352 354 353 351 349 348 346 345
282 284 288 292 297 301 304 307 310 313 315 317 318 318 319 320 320 320 319 317 316 314 313 314 315 316 317 319 320 321 322 323 326 330 333 337 339 341 342 343 343 343 343 344 345 345 346 347 349 350 351 351 351 353 355 356 356 356 356 357 358 357 356 355 357 1 4 1 356 355 357 356 353 353 352 352 353 352 350 350 351 352 353 350 349 348 346 345
281 286 291 295 300 303 306 309 312 315 317 318 318 319 320 321 320 319 318 317 315 313 312 313 315 316 316 318 319 319 321 322 325 328 331 333 336 337 339 339 340 341 341 342 342 343 344 345 346 347 350 352 351 351 352 354 356 355 355 356 356 356 356 354 353 358 1 1 357 355 355 354 353 353 351 350 352 351 349 348 349 351 352 350 348 347 346 345
285 290 295 299 303 305 308 311 314 316 317 318 319 320 321 321 319 319 318 317 314 312 312 313 314 315 315 316 317 319 319 320 322 325 328 330 332 334 335 336 337 338 338 339 341 341 342 343 344 344 346 350 350 349 350 351 353 354 353 354 355 354 354 353 351 354 359 359 356 356 354 352 352 353 351 349 350 350 348 346 347 350 351 349 347 347 346 345
290 295 299 302 305 307 310 313 316 317 318 319 321 321 321 320 319 319 319 317 313 311 311 312 313 313 314 315 316 317 318 318 319 322 325 327 329 330 332 333 334 335 336 337 338 339 340 341 342 342 342 346 348 348 347 349 351 353 351 351 353 352 352 352 349 350 356 358 354 354 354 351 350 351 351 349 348 348 347 345 346 349 350 348 347 346 345 345
295 299 302 304 306 308 312 315 317 318 319 321 322 322 321 320 319 320 319 317 313 311 311 312 312 312 313 314 315 315 316 316 317 319 322 324 325 326 328 330 332 333 333 334 336 337 338 339 341 341 341 342 345 345 345 345 347 351 351 349 351 351 350 350 347 347 353 356 353 352 352 351 350 350 350 348 347 347 345 344 345 348 348 347 346 346 345 344
298 301 303 305 307 310 314 317 319 320 321 323 324 323 322 320 320 321 320 318 314 311 311 311 311 312 312 313 314 314 315 314 315 317 319 321 323 323 325 326 329 330 331 332 333 335 336 337 338 340 340 340 342 343 343 342 344 348 350 349 349 350 349 348 345 344 349 353 351 350 350 349 349 349 349 347 346 346 344 342 344 347 347 346 346 345 344 344
299 301 303 306 309 313 316 318 320 322 323 325 326 324 322 321 322 322 321 319 315 312 311 311 311 311 311 311 312 313 313 313 313 314 316 318 320 321 322 323 325 327 328 329 331 332 334 335 336 338 339 338 339 341 341 339 340 345 348 347 348 348 348 347 343 341 346 350 349 348 347 347 348 348 348 347 345 345 343 340 343 346 346 345 345 344 344 343
Height
10699 10700 10702 10703 10704 10705 10706 10707 10708 10709 10709 10709 10710 10711 10713 10714 10715 10716 10716 10716 10717 10717 10718 10719 10720 10720 10720 10720 10720 10720 10720 10720 10720 10720 10719 10720 10720 10720 10721 10720 10720 10719 10719 10719 10718 10717 10717 10717 10717 10717 10716 10716 10715 10715 10714 10714 10714 10714 10713 10711 10708 10707 10709 10711 10713 10713 10711 10710 10709 10708 10707 10706 10705 10705 10704 10703 10702 10701 10700 10700 10699 10697 10695 10694 10694 10692 10691 10688
10698 10699 10701 10702 10703 10703 10704 10705 10706 10708 10708 10709 10709 10710 10711 10712 10713 10714 10714 10715 10715 10716 10716 10717 10717 10718 10718 10718 10719 10719 10718 10718 10718 10718 10717 10717 10717 10717 10717 10717 10717 10716 10716 10715 10714 10713 10712 10712 10712 10712 10711 10711 10711 10710 10710 10709 10709 10709 10708 10705 10702 10702 10705 10705 10707 10707 10705 10704 10702 10701 10700 10699 10699 10698 10698 10697 10695 10694 10693 10692 10691 10690 10688 10687 10686 10684 10683 10680
10696 10698 10699 10700 10702 10703 10704 10705 10706 10706 10707 10708 10708 10709 10710 10711 10712 10712 10713 10713 10714 10714 10714 10715 10715 10716 10716 10716 10716 10716 10716 10715 10715 10715 10715 10715 10715 10714 10713 10713 10712 10712 10711 10710 10709 10709 10708 10707 10706 10706 10706 10706 10706 10706 10705 10704 10704 10704 10702 10699 10697 10698 10699 10699 10700 10700 10699 10698 10696 10694 10693 10693 10693 10691 10691 10689 10688 10687 10686 10684 10683 10682 10680 10678 10677 10675 10673 10672
10695 10697 10698 10699 10700 10702 10703 10704 10706 10705 10705 10706 10707 10708 10708 10709 10710 10710 10711 10711 10712 10712 10712 10713 10713 10713 10713 10713 10713 10713 10713 10713 10712 10712 10711 10711 10712 10711 10711 10710 10709 10708 10707 10707 10706 10705 10704 10702 10701 10701 10701 10700 10700 10700 10700 10699 10699 10698 10696 10694 10692 10693 10693 10692 10693 10693 10692 10691 10689 10688 10686 10686 10685 10684 10683 10682 10680 10679 10677 10676 10675 10673 10670 10668 10666 10665 10664 10664
10694 10696 10697 10698 10699 10701 10702 10703 10705 10705 10705 10705 10705 10706 10707 10708 10708 10709 10709 10709 10709 10709 10710 10710 10710 10710 10710 10710 10710 10710 10710 10710 10709 10708 10708 10708 10708 10707 10707 10706 10705 10704 10704 10703 10702 10701 10700 10698 10697 10696 10695 10695 10695 10694 10694 10693 10693 10691 10689 10688 10687 10686 10685 10685 10684 10684 10684 10683 10682 10680 10679 10678 10677 10677 10676 10674 10672 10671 10669 10667 10665 10662 10660 10658 10656 10656 10655 10655
10693 10695 10696 10698 10699 10700 10701 10702 10703 10704 10705 10704 10704 10704 10705 10706 10707 10707 10707 10707 10707 10707 10707 10707 10707 10707 10707 10707 10707 10707 10706 10706 10705 10705 10705 10704 10704 10703 10703 10702 10701 10700 10699 10698 10697 10696 10695 10694 10692 10691 10689 10689 10688 10688 10688 10687 10686 10684 10682 10681 10681 10680 10678 10677 10676 10675 10675 10674 10673 10672 10670 10670 10669 10668 10666 10664 10663 10661 10659 10656 10654 10652 10650 10648 10647 10646 10645 10644
10692 10693 10695 10697 10698 10699 10700 10701 10702 10702 10703 10703 10703 10703 10703 10703 10704 10704 10704 10704 10704 10704 10704 10704 10704 10704 10703 10703 10703 10703 10702 10701 10701 10701 10700 10700 10699 10699 10698 10697 10696 10696 10694 10693 10692 10691 10690 10688 10687 10685 10684 10683 10682 10682 10681 10680 10679 10677 10675 10674 10673 10672 10670 10669 10668 10667 10665 10664 10663 10662 10661 10660 10659 10657 10656 10654 10653 10649 10647 10645 10643 10642 10640 10638 10636 10635 10634 10633
10691 10692 10694 10695 10696 10697 10698 10699 10700 10700 10701 10701 10701 10701 10701 10701 10701 10701 10702 10701 10701 10701 10701 10701 10701 10700 10700 10699 10699 10698 10698 10697 10696 10696 10696 10695 10695 10694 10693 10692 10691 10691 10690 10688 10687 10685 10684 10682 10681 10680 10678 10677 10676 10675 10674 10673 10671 10670 10668 10667 10665 10664 10662 10660 10659 10658 10657 10655 10654 10653 10652 10650 10649 10647 10645 10644 10640 10637 10635 10634 10633 10631 10629 10627 10625 10623 10621 10620
10690 10691 10692 10694 10695 10696 10697 10698 10698 10699 10699 10699 10699 10699 10699 10699 10699 10699 10699 10699 10699 10698 10698 10698 10697 10696 10696 10695 10694 10694 10693 10693 10692 10692 10691 10691 10690 10689 10688 10687 10686 10685 10684 10682 10681 10680 10678 10676 10675 10674 10672 10671 10669 10668 10666 10665 10664 10662 10660 10659 10657 10656 10654 10652 10651 10649 10648 10646 10645 10644 10643 10641 10639 10637 10635 10633 10629 10627 10625 10623 10622 10620 10617 10615 10613 10611 10610 10609
10689 10690 10691 10692 10693 10694 10695 10696 10696 10697 10697 10697 10697 10697 10697 10697 10697 10697 10696 10696 10696 10695 10695 10694 10693 10692 10691 10691 10690 10690 10689 10688 10688 10687 10686 10686 10685 10684 10683 10682 10680 10680 10679 10677 10675 10674 10672 10670 10669 10667 10665 10664 10662 10661 10659 10657 10656 10655 10653 10651 10649 10647 10646 10644 10642 10640 10638 10637 10635 10634 10633 10632 10629 10626 10624 10621 10618 10616 10613 10611 10610 10608 10606 10604 10602 10600 10598 10597
10687 10688 10689 10690 10691 10692 10693 10694 10694 10694 10695 10695 10695 10695 10695 10695 10694 10694 10694 10693 10693 10692 10691 10690 10689 10688 10687 10686 10686 10685 10684 10683 10683 10682 10681 10680 10680 10678 10677 10676 10674 10673 10673 10671 10669 10668 10666 10664 10662 10660 10658 10656 10655 10653 10651 10649 10648 10646 10644 10642 10640 10638 10636 10634 10632 10630 10628 10627 10625 10623 10622 10621 10618 10614 10612 10609 10606 10604 10601 10600 10598 10597 10595 10593 10591 10589 10587 10585
10685 10686 10687 10688 10689 10690 10691 10692 10692 10692 10693 10693 10692 10692 10692 10692 10692 10691 10691 10690 10689 10688 10687 10686 10685 10684 10682 10682 10681 10680 10679 10678 10677 10676 10675 10675 10674 10673 10672 10670 10668 10667 10666 10665 10662 10661 10659 10657 10655 10653 10650 10648 10647 10645 10643 10640 10638 10637 10634 10632 10631 10629 10627 10625 10622 10620 10618 10616 10614 10611 10610 10610 10606 10601 10599 10596 10594 10591 10589 10587 10585 10584 10583 10581 10579 10577 10575 10573
10683 10684 10685 10686 10687 10688 10689 10690 10690 10690 10690 10690 10690 10690 10690 10689 10689 10688 10688 10687 10686 10685 10684 10682 10681 10679 10678 10677 10676 10674 10673 10673 10672 10670 10669 10669 10668 10667 10666 10664 10662 10660 10659 10658 10656 10653 10652 10649 10647 10645 10643 10640 10638 10636 10635 10632 10629 10627 10624 10622 10621 10619 10618 10616 10613 10610 10608 10606 10603 10599 10599 10599 10594 10589 10586 10583 10581 10579 10577 10575 10572 10571 10569 10568 10566 10564 10562 10560
10681 10682 10683 10684 10685 10686 10687 10688 10688 10688 10688 10688 10688 10688 10687 10687 10686 10685 10684 10683 10682 10681 10680 10678 10677 10675 10673 10672 10671 10669 10668 10667 10666 10664 10663 10663 10662 10660 10659 10658 10656 10654 10652 10651 10649 10646 10644 10642 10640 10638 10635 10632 10630 10628 10626 10623 10620 10618 10615 10612 10610 10608 10607 10606 10603 10601 10598 10595 10592 10589 10589 10587 10582 10578 10574 10571 10568 10566 10564 10562 10559 10558 10556 10554 10552 10550 10548 10546
10679 10680 10681 10682 10683 10684 10685 10686 10686 10686 10685 10686 10686 10685 10685 10684 10684 10683 10681 10680 10679 10677 10676 10674 10672 10671 10669 10667 10666 10664 10663 10662 10661 10659 10657 10656 10656 10654 10653 10651 10649 10647 10645 10643 10641 10639 10637 10634 10632 10630 10627 10624 10622 10620 10617 10615 10612 10609 10606 10603 10600 10598 10597 10596 10593 10590 10588 10585 10582 10579 10578 10576 10571 10566 10563 10559 10556 10554 10552 10549 10547 10545 10542 10540 10538 10536 10535 10532
10676 10678 10679 10680 10681 10682 10683 10683 10683 10683 10683 10683 10683 10682 10682 10681 10680 10679 10678 10677 10675 10674 10672 10670 10668 10666 10665 10663 10661 10660 10659 10657 10656 10654 10652 10650 10649 10648 10647 10645 10643 10641 10639 10637 10634 10632 10630 10627 10625 10623 10620 10617 10614 10611 10609 10606 10603 10600 10597 10594 10591 10588 10586 10585 10583 10580 10577 10575 10573 10569 10568 10566 10561 10557 10553 10549 10546 10543 10541 10538 10535 10532 10530 10528 10525 10523 10521 10518
10675 10676 10678 10679 10680 10680 10681 10681 10681 10681 10680 10680 10680 10680 10679 10678 10677 10676 10675 10673 10671 10670 10668 10666 10664 10663 10661 10659 10658 10656 10654 10653 10651 10649 10648 10646 10644 10642 10641 10639 10637 10635 10633 10630 10628 10626 10623 10620 10618 10615 10612 10609 10606 10603 10601 10598 10595 10592 10589 10586 10583 10580 10577 10575 10572 10570 10567 10565 10563 10559 10557 10555 10551 10547 10543 10539 10536 10533 10529 10526 10523 10520 10518 10516 10513 10510 10507 10505
10674 10675 10676 10677 10677 10678 10678 10678 10678 10678 10678 10677 10677 10677 10676 10675 10674 10672 10671 10669 10668 10666 10664 10663 10661 10659 10657 10655 10654 10652 10651 10649 10647 10645 10644 10642 10640 10638 10635 10634 10631 10629 10627 10625 10622 10620 10617 10614 10611 10608 10605 10602 10599 10596 10593 10590 10587 10584 10580 10577 10574 10571 10568 10565 10562 10560 10558 10555 10552 10549 10545 10542 10539 10536 10532 10528 10525 10521 10517 10515 10512 10509 10507 10504 10501 10498 10495 10492
10673 10674 10675 10675 10675 10675 10675 10675 10675 10675 10675 10675 10674 10674 10673 10672 10671 10669 10668 10666 10664 10663 10661 10659 10658 10656 10654 10652 10651 10649 10647 10645 10644 10642 10640 10638 10636 10634 10631 10629 10627 10624 10622 10619 10616 10614 10611 10608 10605 10601 10598 10595 10592 10588 10585 10582 10578 10575 10572 10569 10566 10562 10559 10556 10553 10551 10548 10545 10542 10538 10535 10531 10528 10525 10521 10517 10513 10510 10507 10504 10501 10498 10495 10492 10489 10486 10483 10480
10671 10672 10672 10673 10673 10673 10673 10673 10673 10673 10673 10672 10672 10671 10670 10668 10667 10666 10664 10663 10661 10659 10658 10656 10655 10653 10651 10649 10648 10646 10644 10643 10641 10638 10636 10634 10632 10630 10627 10625 10622 10619 10616 10614 10611 10607 10604 10601 10598 10594 10591 10588 10584 10581 10577 10574 10570 10567 10564 10560 10558 10554 10550 10547 10544 10541 10538 10536 10532 10528 10525 10521 10517 10514 10510 10506 10503 10500 10497 10494 10491 10487 10484 10481 10477 10474 10471 10468
10670 10670 10671 10671 10671 10670 10670 10671 10671 10670 10670 10670 10669 10668 10667 10665 10664 10662 10661 10660 10658 10656 10655 10653 10652 10650 10648 10646 10644 10643 10641 10639 10637 10635 10632 10630 10627 10625 10622 10619 10617 10613 10610 10607 10604 10600 10597 10594 10590 10587 10584 10580 10577 10573 10570 10566 10562 10558 10555 10552 10549 10546 10542 10538 10535 10532 10529 10526 10523 10519 10516 10512 10507 10503 10500 10496 10493 10490 10487 10484 10480 10477 10473 10469 10466 10462 10459 10456
10668 10668 10668 10669 10669 10668 10668 10668 10668 10668 10668 10667 10666 10665 10664 10662 10661 10659 10658 10656 10655 10653 10652 10650 10649 10647 10645 10643 10641 10639 10637 10635 10633 10630 10627 10625 10622 10618 10616 10613 10610 10606 10603 10600 10596 10593 10589 10586 10583 10579 10576 10572 10569 10565 10562 10558 10554 10550 10547 10544 10541 10538 10534 10530 10526 10523 10520 10517 10515 10511 10507 10502 10496 10493 10489 10486 10483 10480 10477 10473 10469 10465 10461 10458 10454 10451 10447 10444
10666 10666 10666 10667 10667 10666 10666 10666 10666 10665 10665 10664 10663 10662 10661 10659 10658 10656 10655 10654 10652 10650 10649 10647 10646 10644 10642 10639 10637 10635 10633 10630 10627 10624 10621 10618 10615 10612 10609 10605 10602 10599 10595 10592 10588 10585 10581 10578 10575 10571 10568 10564 10561 10557 10554 10550 10546 10542 10539 10536 10532 10529 10526 10523 10519 10515 10512 10509 10507 10504 10499 10493 10487 10483 10479 10476 10473 10469 10466 10462 10458 10454 10450 10447 10443 10439 10436 10432
10664 10664 10664 10665 10664 10664 10664 10663 10663 10663 10662 10661 10660 10659 10658 10657 10655 10654 10652 10651 10649 10648 10646 10644 10642 10640 10638 10635 10633 10631 10628 10625 10622 10619 10615 10612 10609 10605 10602 10598 10595 10591 10587 10584 10580 10577 10574 10571 10568 10564 10560 10556 10553 10549 10545 10542 10538 10535 10531 10528 10525 10521 10518 10516 10512 10508 10504 10500 10497 10495 10492 10486 10478 10474 10471 10467 10464 10459 10455 10451 10447 10443 10440 10436 10432 10428 10424 10421
10662 10662 10662 10662 10662 10662 10661 10661 10661 10660 10660 10659 10658 10657 10655 10654 10653 10651 10650 10648 10647 10645 10643 10641 10639 10637 10633 10630 10628 10626 10622 10619 10615 10613 10609 10606 10602 10599 10595 10591 10588 10584 10580 10577 10574 10570 10567 10564 10560 10557 10553 10549 10545 10541 10537 10534 10531 10527 10524 10521 10517 10514 10510 10507 10504 10501 10496 10492 10488 10485 10483 10478 10470 10465 10463 10459 10454 10450 10445 10441 10437 10433 10429 10425 10421 10417 10413 10409
10660 10660 10660 10660 10660 10660 10659 10659 10659 10658 10657 10656 10655 10654 10653 10652 10650 10649 10647 10646 10644 10642 10640 10638 10635 10632 10629 10626 10623 10620 10616 10613 10609 10605 10602 10599 10595 10592 10588 10584 10581 10577 10574 10571 10567 10564 10561 10557 10554 10550 10546 10542 10538 10534 10530 10526 10523 10519 10516 10513 10509 10505 10502 10499 10495 10492 10489 10484 10480 10476 10472 10468 10461 10456 10453 10449 10444 10439 10435 10431 10426 10422 10418 10414 10410 10406 10401 10397
10658 10658 10658 10658 10658 10657 10657 10657 10656 10656 10655 10654 10653 10652 10651 10650 10648 10647 10645 10643 10641 10639 10636 10634 10631 10628 10625 10622 10618 10614 10610 10606 10603 10599 10595 10592 10588 10585 10581 10578 10574 10571 10567 10564 10561 10558 10555 10551 10548 10544 10540 10536 10532 10528 10523 10520 10516 10512 10509 10505 10502 10498 10494 10490 10487 10483 10479 10475 10472 10467 10462 10457 10451 10446 10443 10438 10433 10428 10424 10419 10415 10411 10406 10402 10398 10393 10389 10385
10657 10657 10656 10656 10656 10655 10655 10654 10654 10654 10653 10652 10651 10650 10649 10647 10646 10644 10643 10640 10638 10635 10633 10630 10627 10623 10620 10617 10613 10609 10605 10601 10597 10593 10590 10586 10583 10579 10575 10572 10568 10565 10561 10558 10555 10552 10549 10546 10543 10539 10534 10530 10526 10522 10517 10513 10510 10506 10502 10498 10494 10490 10486 10482 10477 10473 10470 10465 10461 10457 10452 10446 10440 10436 10432 10426 10421 10417 10412 10408 10403 10398 10394 10390 10386 10381 10377 10373
10655 10655 10655 10654 10654 10653 10653 10652 10652 10651 10651 10650 10649 10648 10647 10645 10644 10642 10640 10637 10634 10632 10629 10626 10622 10618 10615 10611 10607 10603 10600 10595 10591 10587 10583 10580 10577 10574 10570 10567 10563 10559 10556 10553 10550 10547 10544 10541 10537 10534 10529 10525 10520 10516 10511 10507 10503 10499 10495 10491 10486 10482 10477 10473 10468 10465 10461 10456 10451 10446 10441 10436 10430 10425 10421 10415 10410 10405 10401 10396 10391 10387 10382 10378 10374 10369 10365 10361
10653 10653 10653 10652 10652 10651 10651 10650 10650 10649 10649 10648 10647 10645 10644 10642 10641 10639 10636 10634 10631 10628 10625 10621 10618 10614 10609 10605 10601 10597 10594 10590 10586 10582 10578 10575 10572 10568 10565 10562 10558 10555 10551 10548 10545 10541 10538 10535 10532 10528 10524 10519 10515 10510 10505 10501 10496 10491 10487 10483 10478 10473 10468 10463 10459 10455 10451 10446 10441 10435 10430 10426 10421 10415 10410 10405 10400 10395 10390 10386 10381 10376 10372 10368 10363 10359 10355 10351
10652 10652 10651 10651 10650 10650 10649 10649 10648 10647 10646 10645 10644 10643 10641 10640 10638 10635 10633 10630 10627 10624 10620 10617 10613 10609 10605 10600 10596 10592 10589 10585 10582 10579 10575 10572 10568 10565 10562 10558 10555 10551 10547 10543 10539 10536 10532 10529 10525 10521 10518 10513 10508 10503 10498 10493 10488 10483 10478 10474 10469 10463 10458 10453 10448 10445 10442 10437 10431 10425 10420 10416 10412 10407 10402 10397 10391 10387 10382 10377 10373 10369 10364 10360 10355 10350 10346 10341
10650 10650 10650 10649 10649 10648 10648 10647 10646 10645 10644 10643 10642 10640 10639 10636 10634 10632 10629 10626 10623 10619 10615 10612 10608 10603 10599 10595 10591 10587 10584 10580 10577 10574 10571 10568 10566 10563 10559 10556 10552 10548 10543 10538 10534 10530 10526 10522 10518 10514 10509 10505 10501 10495 10490 10485 10479 10474 10470 10465 10460 10454 10448 10443 10438 10433 10431 10428 10423 10417 10412 10407 10403 10399 10394 10390 10384 10379 10375 10370 10365 10361 10356 10352 10347 10342 10338 10333
10648 10648 10648 10647 10647 10646 10646 10645 10644 10643 10642 10641 10639 10637 10635 10633 10631 10628 10625 10622 10619 10615 10611 10607 10602 10598 10594 10590 10587 10583 10579 10576 10573 10569 10566 10563 10560 10557 10553 10550 10546 10542 10538 10534 10530 10526 10521 10517 10512 10507 10502 10497 10493 10488 10482 10477 10471 10466 10461 10456 10451 10445 10440 10435 10429 10424 10420 10419 10415 10410 10405 10400 10395 10391 10386 10382 10377 10372 10367 10363 10358 10353 10348 10344 10339 10334 10329 10324
10647 10646 10646 10646 10645 10645 10644 10644 10643 10641 10640 10638 10637 10635 10632 10630 10627 10624 10621 10618 10614 10610 10606 10602 10597 10593 10589 10586 10582 10579 10575 10572 10569 10566 10562 10559 10555 10552 10548 10545 10541 10537 10533 10529 10525 10520 10515 10510 10505 10500 10494 10489 10484 10479 10474 10469 10464 10459 10454 10449 10444 10439 10434 10429 10425 10419 10414 10411 10408 10403 10397 10393 10388 10383 10379 10374 10370 10365 10360 10355 10350 10345 10340 10335 10330 10325 10320 10315
10645 10645 10645 10644 10644 10644 10643 10642 10641 10639 10638 10636 10634 10632 10629 10627 10624 10620 10617 10613 10609 10605 10601 10596 10592 10588 10584 10581 10578 10575 10571 10568 10565 10562 10559 10555 10552 10549 10545 10541 10537 10533 10528 10523 10518 10513 10507 10502 10496 10491 10485 10480 10476 10471 10466 10462 10457 10452 10448 10443 10439 10434 10429 10424 10420 10415 10410 10406 10402 10398 10392 10386 10381 10377 10372 10367 10363 10358 10353 10348 10343 10338 10331 10326 10320 10315 10310 10305
10643 10643 10643 10643 10642 10642 10641 10640 10639 10637 10635 10633 10631 10629 10626 10623 10620 10616 10613 10609 10605 10601 10596 10592 10588 10584 10580 10576 10573 10571 10568 10565 10562 10559 10555 10552 10548 10545 10541 10537 10533 10528 10523 10517 10512 10507 10501 10496 10490 10484 10479 10474 10470 10465 10460 10456 10452 10447 10443 10438 10434 10429 10425 10420 10415 10411 10405 10400 10397 10394 10389 10380 10374 10371 10366 10361 10357 10351 10346 10340 10335 10330 10324 10317 10311 10305 10299 10294
10642 10642 10642 10641 10641 10640 10639 10638 10637 10635 10633 10630 10628 10626 10623 10620 10616 10613 10609 10605 10601 10597 10592 10588 10584 10580 10577 10573 10571 10568 10565 10562 10559 10555 10552 10549 10545 10541 10537 10532 10528 10523 10518 10513 10508 10502 10497 10492 10486 10480 10475 10470 10466 10461 10457 10452 10448 10443 10439 10434 10430 10426 10422 10417 10412 10408 10402 10396 10390 10387 10385 10377 10369 10365 10360 10355 10351 10345 10339 10334 10329 10323 10317 10310 10303 10297 10292 10286
10640 10640 10640 10639 10639 10638 10637 10636 10634 10632 10630 10628 10625 10622 10619 10616 10613 10609 10605 10601 10596 10592 10588 10584 10580 10577 10574 10571 10568 10565 10562 10559 10556 10553 10550 10546 10542 10538 10533 10529 10525 10520 10515 10510 10504 10499 10493 10488 10483 10477 10472 10467 10462 10458 10454 10449 10444 10440 10436 10432 10427 10423 10419 10414 10409 10405 10400 10394 10386 10381 10378 10373 10366 10361 10355 10350 10345 10341 10335 10329 10323 10317 10311 10305 10299 10292 10286 10280
10638 10638 10638 10638 10637 10636 10635 10633 10631 10629 10627 10625 10622 10619 10616 10612 10609 10605 10600 10596 10592 10587 10583 10579 10576 10573 10570 10568 10565 10562 10559 10556 10553 10550 10547 10543 10539 10535 10531 10527 10522 10517 10512 10507 10501 10496 10490 10485 10480 10475 10470 10465 10460 10456 10451 10446 10442 10438 10433 10429 10424 10419 10414 10409 10405 10401 10396 10391 10385 10379 10375 10371 10364 10358 10353 10346 10340 10335 10330 10323 10317 10311 10305 10299 10293 10286 10280 10273
10637 10637 10637 10636 10635 10634 10632 10631 10629 10626 10624 10622 10619 10616 10612 10609 10605 10600 10596 10592 10587 10583 10579 10575 10572 10570 10567 10564 10562 10559 10556 10553 10550 10547 10544 10540 10537 10533 10528 10524 10519 10514 10509 10504 10498 10493 10487 10482 10478 10473 10468 10463 10458 10453 10449 10444 10440 10435 10431 10426 10422 10416 10411 10405 10401 10397 10393 10388 10383 10377 10373 10369 10363 10356 10350 10343 10336 10330 10324 10318 10311 10305 10298 10292 10286 10280 10274 10267
10635 10635 10635 10634 10633 10632 10630 10628 10626 10624 10621 10619 10616 10612 10608 10604 10600 10596 10592 10587 10583 10579 10575 10572 10569 10567 10564 10561 10559 10556 10553 10550 10547 10544 10541 10537 10534 10529 10525 10520 10516 10511 10505 10500 10495 10489 10484 10479 10474 10470 10466 10461 10456 10452 10447 10443 10438 10434 10429 10424 10420 10415 10409 10403 10397 10392 10388 10384 10379 10372 10366 10363 10359 10353 10346 10339 10332 10326 10320 10314 10307 10300 10293 10286 10280 10274 10268 10262
10634 10633 10633 10632 10631 10629 10627 10625 10623 10621 10618 10615 10612 10608 10604 10600 10596 10592 10588 10583 10579 10575 10571 10568 10566 10564 10561 10558 10556 10553 10550 10547 10544 10541 10538 10534 10530 10526 10522 10518 10513 10507 10502 10497 10492 10487 10482 10477 10473 10468 10464 10460 10455 10451 10447 10442 10437 10432 10427 10422 10417 10413 10408 10402 10396 10390 10384 10380 10376 10369 10361 10356 10352 10347 10341 10335 10327 10320 10315 10309 10303 10295 10288 10281 10274 10268 10262 10256
10632 10632 10631 10630 10628 10626 10625 10623 10620 10618 10615 10612 10608 10605 10601 10596 10592 10588 10584 10579 10575 10572 10568 10565 10563 10561 10558 10556 10553 10550 10547 10544 10542 10539 10535 10531 10528 10524 10519 10515 10510 10505 10500 10495 10491 10486 10482 10477 10472 10468 10463 10459 10454 10450 10445 10440 10435 10430 10425 10420 10415 10411 10406 10401 10395 10389 10382 10375 10372 10366 10358 10350 10346 10341 10334 10329 10322 10315 10309 10304 10298 10291 10284 10277 10270 10263 10256 10250
10630 10630 10628 10627 10626 10624 10622 10620 10617 10614 10612 10608 10605 10601 10597 10593 10589 10584 10580 10576 10572 10569 10565 10563 10560 10558 10556 10553 10550 10548 10545 10542 10539 10536 10532 10529 10525 10521 10517 10513 10508 10504 10499 10495 10490 10485 10481 10476 10472 10467 10462 10458 10453 10448 10443 10438 10433 10428 10423 10418 10412 10408 10403 10399 10393 10387 10380 10372 10366 10362 10355 10344 10338 10334 10328 10323 10317 10309 10302 10297 10292 10286 10279 10272 10265 10258 10251 10244
10629 10627 10626 10625 10623 10621 10619 10617 10614 10611 10608 10604 10601 10597 10593 10589 10585 10581 10577 10573 10569 10566 10563 10560 10558 10555 10553 10550 10547 10545 10542 10539 10536 10533 10529 10526 10522 10519 10515 10511 10507 10502 10498 10493 10489 10484 10480 10475 10471 10465 10460 10456 10451 10446 10441 10436 10431 10426 10421 10415 10409 10404 10399 10395 10390 10385 10379 10371 10361 10356 10353 10343 10332 10326 10321 10315 10310 10303 10295 10289 10284 10279 10273 10266 10259 10252 10245 10238
10626 10625 10624 10622 10621 10619 10616 10614 10611 10608 10604 10601 10597 10593 10589 10585 10581 10577 10573 10570 10566 10563 10560 10558 10555 10553 10550 10547 10544 10541 10539 10536 10533 10530 10526 10523 10520 10516 10512 10509 10504 10500 10496 10491 10487 10482 10478 10473 10469 10464 10459 10453 10448 10444 10438 10433 10427 10421 10416 10411 10405 10399 10393 10388 10384 10380 10375 10369 10360 10350 10346 10342 10333 10323 10316 10310 10303 10297 10290 10283 10276 10271 10265 10259 10252 10245 10238 10230
10624 10623 10622 10620 10618 10616 10613 10611 10608 10604 10601 10597 10593 10589 10585 10581 10577 10574 10570 10567 10563 10560 10558 10555 10552 10550 10547 10544 10542 10539 10536 10533 10530 10527 10523 10520 10517 10513 10509 10506 10502 10498 10494 10489 10484 10479 10475 10470 10465 10462 10457 10451 10445 10439 10435 10429 10424 10418 10411 10406 10400 10394 10388 10382 10377 10373 10369 10364 10359 10350 10341 10336 10331 10323 10313 10305 10299 10293 10285 10278 10271 10265 10259 10252 10245 10238 10231 10223
10622 10621 10619 10617 10615 10613 10610 10607 10604 10601 10597 10593 10590 10586 10582 10578 10574 10571 10568 10564 10561 10558 10555 10552 10550 10547 10544 10542 10539 10536 10533 10529 10527 10524 10520 10517 10514 10510 10506 10503 10499 10495 10491 10487 10482 10477 10472 10467 10461 10456 10453 10450 10444 10437 10431 10426 10420 10414 10408 10402 10396 10390 10384 10378 10371 10367 10363 10357 10352 10347 10339 10330 10324 10320 10312 10302 10294 10288 10281 10273 10266 10261 10254 10247 10239 10232 10225 10217
10620 10618 10617 10615 10613 10610 10607 10604 10601 10597 10593 10590 10586 10582 10578 10575 10571 10568 10565 10562 10558 10555 10552 10550 10547 10544 10542 10539 10536 10533 10530 10527 10523 10520 10517 10514 10510 10507 10503 10499 10495 10491 10487 10483 10479 10475 10470 10464 10459 10452 10447 10444 10440 10434 10429 10423 10417 10411 10404 10397 10392 10386 10379 10373 10365 10360 10357 10352 10345 10340 10336 10328 10318 10312 10306 10298 10289 10282 10275 10267 10261 10254 10248 10241 10234 10226 10218 10211
10617 10616 10614 10612 10610 10607 10604 10601 10598 10594 10590 10586 10582 10578 10575 10571 10568 10565 10562 10559 10556 10553 10550 10547 10544 10542 10539 10536 10533 10530 10527 10524 10520 10517 10514 10511 10507 10504 10500 10496 10492 10487 10483 10479 10475 10471 10467 10462 10457 10451 10443 10437 10434 10428 10423 10418 10414 10409 10402 10393 10387 10380 10372 10365 10358 10353 10350 10346 10340 10333 10329 10325 10316 10307 10300 10292 10284 10276 10268 10261 10255 10248 10241 10234 10228 10220 10211 10204
10615 10613 10611 10609 10607 10604 10601 10598 10594 10591 10587 10583 10579 10574 10571 10568 10565 10562 10559 10556 10553 10550 10547 10544 10542 10539 10535 10533 10530 10526 10523 10520 10517 10513 10510 10507 10504 10500 10496 10493 10489 10484 10479 10475 10470 10466 10463 10458 10453 10449 10441 10433 10429 10424 10417 10411 10407 10403 10398 10390 10382 10376 10369 10360 10351 10346 10343 10339 10334 10327 10321 10317 10311 10305 10297 10289 10280 10272 10264 10255 10250 10244 10236 10227 10220 10213 10205 10197
10612 10611 10609 10606 10604 10601 10598 10594 10591 10587 10583 10579 10575 10571 10568 10565 10562 10559 10556 10553 10550 10547 10544 10541 10538 10536 10533 10529 10526 10523 10520 10516 10513 10510 10506 10503 10500 10496 10492 10488 10485 10481 10475 10471 10466 10461 10457 10454 10449 10445 10440 10432 10426 10421 10414 10407 10402 10399 10393 10387 10380 10373 10366 10358 10347 10339 10337 10333 10327 10321 10315 10309 10304 10298 10293 10286 10276 10267 10258 10249 10242 10239 10232 10223 10214 10205 10198 10190